Custer, SD

7:07 PM MST on January 20, 2018 (GMT -0700)
Custer County

Weather History for KCUT - August, 2013

Change the Weather History Date:

Friday, August 23, 2013

  Actual Average Record
Temperature  
Mean Temperature 69 °F 63 °F  
Max Temperature 79 °F 77 °F 95 °F (1971)
Min Temperature 58 °F 49 °F 28 °F (1966)
Degree Days  
Heating Degree Days 0 3  
Month to date heating degree days 55 57  
Since 1 June heating degree days 290 338  
Since 1 July heating degree days 97 118  
Cooling Degree Days 4 1  
Month to date cooling degree days 24 44  
Year to date cooling degree days 98 151  
Since 1 June cooling degree days 96 150  
Growing Degree Days 19 (Base 50)    
Moisture  
Dew Point 58 °F    
Average Humidity 71    
Maximum Humidity 100    
Minimum Humidity 42    
Precipitation  
Precipitation 0.00 in 0.07 in 0.76 in (1963)
Month to date precipitation 3.95 1.57  
Year to date precipitation 15.95 14.34  
Sea Level Pressure  
Sea Level Pressure 30.00 in    
Wind  
Wind Speed 4 mph (SSW)    
Max Wind Speed 12 mph    
Max Gust Speed 18 mph    
Visibility 6 miles    
Events Fog    
T = Trace of Precipitation, MM = Missing Value Source: NWS Daily Summary

Daily Weather History Graph

Daily Weather History Graph

Search for Another Location

Airport or City:

Trip Planner

Search our weather history database for the weather conditions in past years. The results will help you decide how hot, cold, wet, or windy it might be!

Date:

Astronomy

Aug. 23, 2013 Rise Set
Actual Time 6:08 AM MDT 7:44 PM MDT
Civil Twilight 5:37 AM MDT 8:15 PM MDT
Nautical Twilight 5:01 AM MDT 8:51 PM MDT
Astronomical Twilight 4:21 AM MDT 9:30 PM MDT
Moon 8:56 PM MDT (8/23) 9:13 AM MDT (8/23)
Length of Visible Light 14h 37m
Length of Day
13h 36m
Waning Gibbous, 91% of the Moon is Illuminated
Aug 23
Waning Gibbous
Aug 28
Last Quarter
Sep 5
New
Sep 12
First Quarter
Sep 19
Full

Hourly Weather History & Observations

Time (MDT) Temp. Dew Point Humidity Pressure Visibility Wind Dir Wind Speed Gust Speed Precip Events Conditions
12:11 AM 60.8 °F 57.2 °F 88% 30.20 in 9.0 mi South 3.5 mph - N/A   Scattered Clouds
12:27 AM 60.8 °F 57.2 °F 88% 30.21 in 9.0 mi Variable 3.5 mph - N/A   Mostly Cloudy
12:53 AM 60.1 °F 57.9 °F 93% 30.01 in 8.0 mi South 5.8 mph - N/A   Overcast
1:35 AM 60.8 °F 57.2 °F 88% 30.20 in 9.0 mi WSW 4.6 mph - N/A   Scattered Clouds
1:45 AM 60.8 °F 57.2 °F 88% 30.20 in 8.0 mi SSW 5.8 mph - N/A   Mostly Cloudy
1:53 AM 60.1 °F 57.9 °F 93% 30.01 in 8.0 mi South 4.6 mph - N/A   Mostly Cloudy
2:17 AM 59.0 °F 57.2 °F 94% 30.18 in 7.0 mi South 5.8 mph - N/A   Partly Cloudy
2:53 AM 59.0 °F 57.0 °F 93% 29.98 in 5.0 mi West 3.5 mph - N/A   Partly Cloudy
3:10 AM 59.0 °F 57.2 °F 94% 30.17 in 5.0 mi WSW 4.6 mph - N/A   Mostly Cloudy
3:49 AM 60.8 °F 59.0 °F 94% 30.16 in 4.0 mi Calm Calm - N/A   Mostly Cloudy
3:53 AM 60.1 °F 59.0 °F 96% 29.97 in 4.0 mi SW 3.5 mph - N/A   Mostly Cloudy
4:09 AM 59.0 °F 59.0 °F 100% 30.16 in 2.0 mi SSW 4.6 mph - N/A   Overcast
4:16 AM 60.8 °F 59.0 °F 94% 30.15 in 1.8 mi SW 4.6 mph - N/A   Overcast
4:25 AM 60.8 °F 59.0 °F 94% 30.15 in 2.5 mi SW 4.6 mph - N/A   Overcast
4:37 AM 60.8 °F 59.0 °F 94% 30.15 in 3.0 mi SW 4.6 mph - N/A   Overcast
4:53 AM 60.1 °F 59.0 °F 96% 29.95 in 2.5 mi SW 3.5 mph - N/A   Overcast
5:20 AM 60.8 °F 59.0 °F 94% 30.14 in 1.5 mi SW 5.8 mph - N/A   Overcast
5:33 AM 60.8 °F 59.0 °F 94% 30.13 in 2.0 mi SSW 4.6 mph - N/A   Overcast
5:53 AM 60.1 °F 59.0 °F 96% 29.94 in 2.5 mi Calm Calm - N/A   Overcast
6:09 AM 59.0 °F 59.0 °F 100% 30.13 in 1.5 mi Calm Calm - N/A   Overcast
6:21 AM 59.0 °F 59.0 °F 100% 30.12 in 0.2 mi WSW 4.6 mph - N/A Fog Fog
6:53 AM 60.1 °F 59.0 °F 96% 29.94 in 0.2 mi Calm Calm - N/A Fog Fog
7:53 AM 60.1 °F 60.1 °F 100% 29.95 in 0.2 mi WNW 4.6 mph - N/A Fog Fog
8:13 AM 60.8 °F 60.8 °F 100% 30.11 in 1.0 mi Calm Calm - N/A   Mist
8:22 AM 60.8 °F 60.8 °F 100% 30.11 in 2.0 mi Calm Calm - N/A   Scattered Clouds
8:36 AM 62.6 °F 60.8 °F 94% 30.11 in 3.0 mi Calm Calm - N/A   Partly Cloudy
8:53 AM 62.1 °F 61.0 °F 96% 29.93 in 6.0 mi Calm Calm - N/A   Clear
9:53 AM 70.0 °F 62.1 °F 76% 29.91 in 10.0 mi SSW 3.5 mph - N/A   Clear
10:53 AM 73.9 °F 61.0 °F 64% 29.90 in 10.0 mi South 5.8 mph - N/A   Clear
11:53 AM 73.9 °F 60.1 °F 62% 29.90 in 10.0 mi South 5.8 mph - N/A   Clear
12:53 PM 75.9 °F 61.0 °F 60% 29.88 in 10.0 mi SSE 8.1 mph - N/A   Clear
1:53 PM 75.9 °F 59.0 °F 56% 29.87 in 10.0 mi South 8.1 mph - N/A   Clear
2:53 PM 75.9 °F 57.0 °F 52% 29.86 in 10.0 mi Variable 4.6 mph 16.1 mph N/A   Clear
3:53 PM 78.1 °F 57.0 °F 48% 29.83 in 10.0 mi South 6.9 mph 18.4 mph N/A   Clear
4:53 PM 79.0 °F 55.9 °F 45% 29.81 in 10.0 mi South 9.2 mph - N/A   Clear
5:53 PM 78.1 °F 54.0 °F 43% 29.81 in 10.0 mi Variable 3.5 mph - N/A   Clear
6:53 PM 77.0 °F 55.9 °F 48% 29.81 in 10.0 mi Calm Calm - N/A   Clear
7:53 PM 73.9 °F 55.9 °F 53% 29.82 in 10.0 mi Calm Calm - N/A   Clear
8:53 PM 70.0 °F 55.9 °F 61% 29.83 in 10.0 mi Calm Calm - N/A   Clear
9:53 PM 66.0 °F 57.0 °F 73% 29.82 in 10.0 mi NNW 3.5 mph - N/A   Clear
10:53 PM 64.9 °F 55.9 °F 73% 29.81 in 10.0 mi NW 3.5 mph - N/A   Clear
11:53 PM 64.0 °F 55.0 °F 73% 29.81 in 10.0 mi Calm Calm - N/A   Clear